This is the latest recevied weather packets stored in our database for station/object K5NWZ. If no packets are shown the sender has not sent any weather packets the latest 10 day(s).
| Time | Temp. | Humidity | Pressure | Rain* | Wind** | Luminosity | Snow |
|---|---|---|---|---|---|---|---|
| 1787536031 | 26.11° C | 46% | 1029.9 hPa | 0 mm | - | 0 W/m² | - |
| 1787535726 | 26.11° C | 44% | 1029.5 hPa | 0 mm | - | 0 W/m² | - |
| 1787535421 | 26.67° C | 41% | 1028.7 hPa | 0 mm | - | 1 W/m² | - |
| 1787535116 | 27.22° C | 42% | 1027.9 hPa | 0 mm | - | 3 W/m² | - |
| 1787534815 | 27.78° C | 40% | 1027.6 hPa | 0 mm | - | 5 W/m² | - |
| 1787534510 | 27.78° C | 42% | 1027.4 hPa | 0 mm | - | 6 W/m² | - |
| 1787534209 | 27.22° C | 45% | 1027.5 hPa | 0 mm | - | 6 W/m² | - |
| 1787533906 | 27.22° C | 45% | 1028 hPa | 0 mm | - | 5 W/m² | - |
| 1787533602 | 27.22° C | 49% | 1028 hPa | 0 mm | - | 4 W/m² | - |
| 1787533298 | 27.78° C | 47% | 1028 hPa | 0 mm | - | 3 W/m² | - |
| 1787532992 | 27.22° C | 44% | 1027.9 hPa | 0 mm | - | 4 W/m² | - |
| 1787532688 | 26.67° C | 47% | 1027.5 hPa | 0 mm | - | 7 W/m² | - |
| 1787532383 | 26.67° C | 50% | 1027.2 hPa | 0 mm | - | 11 W/m² | - |
| 1787532079 | 26.11° C | 50% | 1027 hPa | 0 mm | - | 17 W/m² | - |
| 1787531775 | 26.67° C | 48% | 1026.8 hPa | 0 mm | - | 37 W/m² | - |
| 1787531471 | 26.67° C | 52% | 1026.9 hPa | 0 mm | - | 67 W/m² | - |
| 1787531166 | 26.67° C | 52% | 1027.4 hPa | 0 mm | - | 68 W/m² | - |
| 1787530862 | 25.56° C | 55% | 1027.3 hPa | 0 mm | - | 50 W/m² | - |
| 1787530561 | 25.56° C | 56% | 1027.2 hPa | 0 mm | - | 39 W/m² | - |
| 1787530256 | 26.11° C | 57% | 1026.7 hPa | 0 mm | - | 37 W/m² | - |
| 1787529947 | 26.11° C | 55% | 1026.8 hPa | 0 mm | - | 61 W/m² | - |
| 1787529642 | 26.11° C | 58% | 1026.8 hPa | 0 mm | - | 87 W/m² | - |
| 1787529337 | 26.67° C | 51% | 1026.8 hPa | 1.78 mm | - | 92 W/m² | - |
| 1787529032 | 28.89° C | 53% | 1027.2 hPa | 1.78 mm | - | 77 W/m² | - |
| 1787528728 | 30° C | 41% | 1027.2 hPa | 0 mm | - | 53 W/m² | - |
* Rain latest hour (hover to see other rain measurements)
** Current wind speed in m/s (hover to see current wind gust speed)